Theta_e
324 324 324 325 327 329 329 327 325 324 323 324 324 323 322 323 322 321 319 319 319 319 319 318 317 317 317 317 318 319 318 319 321 322 323 325 326 327 327 327 327 327 327 327 327 327 326 327 323 315 313 314 314 315 315 317 319 319 326 328 326 331 329 328 326 322 323 321 318 318 319 320 319 318 318 319 319 321 320 321 322 322 326 327 328 325 323 330
323 324 324 325 326 328 329 328 327 325 323 323 324 324 323 323 322 321 320 320 320 320 319 319 318 317 317 317 317 318 318 319 321 322 323 325 326 328 328 328 328 327 328 327 327 326 326 325 321 315 313 314 314 316 317 318 318 320 328 326 328 335 327 320 320 319 320 319 317 318 319 319 319 318 318 318 318 320 321 323 325 326 330 331 330 329 325 328
323 323 324 327 327 327 328 328 327 326 323 322 323 325 324 323 323 321 320 320 320 320 320 319 319 318 317 317 317 317 318 318 320 321 322 324 326 327 328 328 328 328 328 327 326 326 325 323 318 314 313 313 314 315 317 319 318 319 321 324 331 330 319 316 317 318 320 319 318 317 318 319 319 318 318 318 317 317 319 323 328 332 334 334 333 332 328 327
323 323 323 326 328 327 328 328 327 326 324 322 323 325 325 324 323 322 321 321 320 320 320 320 320 319 319 318 317 317 317 319 319 320 321 323 326 327 328 328 328 328 327 327 326 326 324 321 315 313 313 313 313 314 316 319 319 318 318 325 328 320 317 317 316 318 320 318 318 318 318 318 318 318 317 317 317 316 317 319 324 329 330 331 333 333 330 328
322 322 323 326 328 328 327 328 326 326 325 323 322 324 325 325 324 323 322 322 321 321 321 320 320 320 320 320 319 318 318 321 322 320 320 322 325 326 327 328 328 327 327 327 326 325 323 318 315 313 313 313 313 315 316 317 318 318 318 321 321 316 318 318 315 318 319 318 318 317 318 318 317 317 317 317 318 318 317 317 317 318 320 323 328 330 330 328
321 321 322 324 326 327 326 327 326 325 325 323 322 322 323 324 325 324 323 322 322 322 321 321 320 320 321 321 321 320 320 323 322 321 321 321 324 326 327 328 327 326 325 326 326 325 321 317 315 314 313 313 313 314 316 316 317 319 320 317 316 317 318 316 316 317 318 318 317 317 318 318 317 317 317 316 317 317 316 317 317 316 317 317 320 324 327 326
319 321 322 322 323 325 325 326 325 325 324 323 321 321 321 323 325 325 324 323 322 322 321 321 321 321 321 321 321 321 321 322 319 321 323 321 324 326 326 328 327 325 324 325 326 324 320 316 315 313 312 312 313 313 314 316 316 319 320 317 316 316 316 316 316 317 318 318 317 318 318 317 317 317 317 316 316 317 317 317 317 317 317 318 319 319 320 321
319 320 322 322 322 323 325 326 325 323 322 321 320 320 319 320 323 324 325 324 323 322 322 321 321 321 322 321 321 323 323 322 319 320 323 322 324 325 326 327 325 323 322 323 325 322 318 315 314 313 313 312 312 312 313 315 316 317 319 317 315 315 315 316 316 317 317 318 318 318 316 316 317 316 316 316 316 316 317 318 317 318 318 318 317 317 318 318
317 319 320 323 324 323 325 325 323 321 320 320 319 319 318 319 320 322 324 324 323 323 322 321 322 323 324 322 323 325 323 322 322 320 320 323 324 324 326 327 324 321 320 320 322 319 316 314 313 313 312 312 312 312 312 313 315 317 317 316 315 314 315 315 315 316 317 317 317 317 315 315 315 316 316 315 316 316 315 317 318 319 319 319 317 316 317 317
316 318 319 323 325 324 324 324 321 320 320 320 318 318 318 318 318 320 323 324 324 323 323 322 323 324 325 325 324 325 323 322 323 320 318 321 323 324 325 326 324 319 317 317 318 317 314 313 313 312 311 311 311 312 312 313 315 316 316 316 315 314 314 314 315 315 316 316 316 317 315 314 315 315 317 316 316 316 315 317 319 320 320 319 318 317 316 316
318 320 320 323 324 323 322 322 321 321 321 320 320 319 319 318 318 319 322 324 325 324 323 322 323 324 325 326 325 324 323 321 324 322 318 320 322 323 324 326 323 318 316 316 316 316 313 312 312 311 311 311 311 312 312 312 315 316 315 315 314 314 314 314 314 314 315 316 315 316 314 314 315 315 316 316 316 316 316 318 319 319 319 319 319 318 316 315
320 321 322 323 322 321 321 321 321 322 322 321 322 321 319 319 319 319 321 323 325 324 323 322 323 324 324 325 325 324 322 322 324 320 316 320 323 323 324 326 322 317 316 315 316 315 313 313 312 311 312 311 311 311 312 313 313 315 316 316 314 314 315 314 314 314 315 315 315 315 315 316 316 316 316 315 316 316 316 317 318 319 318 319 319 318 316 315
321 322 322 322 321 321 322 322 322 322 321 321 322 320 319 320 320 320 320 322 324 324 324 323 323 324 324 324 324 325 323 323 322 316 315 320 322 323 324 324 321 315 315 315 315 315 313 313 312 312 312 311 311 311 312 312 313 315 315 316 316 314 315 315 314 315 315 315 315 314 316 321 318 316 315 315 316 316 316 315 316 317 317 317 317 317 316 315
322 321 322 322 321 322 322 321 321 321 321 321 321 321 320 320 320 320 320 322 323 323 324 324 324 324 325 323 323 325 323 320 319 314 315 320 321 323 323 322 319 315 314 315 315 315 313 313 312 312 312 311 311 311 312 311 314 317 315 316 319 318 318 316 313 314 315 314 314 313 317 324 320 315 315 315 316 316 316 315 315 315 316 317 318 316 315 315
322 320 322 322 322 322 321 320 320 320 320 321 321 321 321 321 321 320 320 322 322 323 323 323 323 323 323 321 321 323 319 315 317 314 314 318 320 322 320 318 318 316 315 315 315 314 313 313 312 312 311 312 311 311 311 312 315 316 316 318 318 318 320 317 313 314 315 314 314 313 317 321 318 314 314 315 316 315 315 315 315 315 315 316 318 318 317 316
322 320 321 321 321 321 321 320 320 320 320 321 320 321 321 321 321 320 320 321 322 322 321 321 321 322 320 319 319 319 315 313 316 315 315 318 320 322 318 315 316 316 315 315 314 313 313 313 312 312 311 311 311 311 312 313 316 315 318 322 320 317 319 317 314 313 314 314 313 313 316 319 316 313 313 314 315 315 315 314 315 315 315 316 317 318 318 318
323 322 322 321 321 320 320 319 320 320 321 321 320 321 321 321 320 320 320 320 321 319 319 319 319 320 318 315 316 317 313 312 315 314 315 318 318 318 317 315 315 315 315 314 314 313 313 312 312 312 311 311 311 312 313 313 316 316 315 320 322 319 317 317 316 314 313 314 314 313 315 318 316 312 313 314 313 314 314 314 315 316 315 315 316 318 319 319
323 322 322 321 320 320 319 319 320 320 320 320 320 320 320 320 319 319 319 319 318 316 316 316 317 320 319 312 313 318 316 313 313 313 314 314 314 313 313 313 314 315 314 314 314 313 312 312 312 312 311 311 311 311 313 315 318 319 316 316 320 318 315 318 318 315 314 315 315 314 314 318 317 313 312 314 313 314 314 314 315 315 316 316 316 317 318 319
323 322 321 321 320 319 320 319 320 319 319 320 320 320 319 319 318 318 318 318 316 315 315 315 317 320 320 314 312 316 319 316 312 312 313 313 313 311 311 312 314 314 313 314 313 312 312 312 311 311 311 311 311 310 313 316 318 320 319 317 320 319 316 318 318 315 314 315 316 315 314 316 317 314 312 313 313 313 314 314 314 314 315 316 316 316 316 317
323 322 320 320 319 320 320 319 319 318 318 319 319 318 318 317 318 318 317 316 316 315 314 316 317 315 315 315 312 313 316 315 312 311 313 314 312 311 313 314 315 313 312 313 313 312 312 312 312 311 311 310 311 312 312 314 314 315 317 316 319 320 317 317 317 314 313 315 316 315 315 315 315 315 312 312 313 313 312 313 314 314 314 315 316 317 316 316
322 322 320 319 319 319 319 318 318 318 318 318 318 318 317 317 318 318 316 315 316 314 312 317 317 312 313 314 312 313 314 313 312 312 312 314 312 311 312 313 312 311 311 312 312 312 311 312 312 311 311 311 311 313 312 312 311 312 316 316 316 320 318 315 315 314 312 314 316 315 315 314 315 315 312 311 312 311 312 312 312 314 313 314 315 315 316 315
321 320 319 318 318 318 318 318 318 318 318 317 318 318 317 317 316 317 316 315 316 312 312 317 316 311 313 314 313 315 314 312 313 312 312 313 312 312 311 311 311 310 311 311 311 312 311 311 311 311 311 311 312 313 312 312 312 312 316 316 316 318 318 314 314 315 313 314 317 317 315 315 315 315 312 310 311 312 313 313 313 314 313 314 314 315 315 315
320 319 319 318 317 316 317 318 317 317 317 317 317 317 317 316 315 316 316 315 315 312 311 315 313 311 313 312 312 313 312 312 312 312 312 312 312 312 311 310 311 310 310 311 311 312 312 311 311 311 311 311 312 312 312 312 312 314 317 317 317 316 317 316 314 314 313 313 316 316 316 316 315 315 314 312 312 314 314 314 314 314 314 314 314 314 315 315
320 319 318 316 315 316 317 317 317 317 317 317 317 316 316 315 315 317 316 313 312 311 311 312 311 311 313 312 311 312 311 311 312 312 312 312 312 312 311 310 311 311 310 311 311 312 312 311 310 311 311 312 312 311 313 313 312 316 319 320 321 318 317 317 315 314 313 313 314 315 316 318 316 315 316 315 313 313 314 314 314 314 314 314 314 314 314 315
319 318 316 315 315 316 316 316 316 316 316 316 316 316 316 315 315 316 314 312 311 310 311 312 310 311 313 312 312 312 311 311 312 313 312 312 312 311 312 311 311 311 311 311 311 312 312 311 311 311 311 313 313 312 314 316 313 316 320 322 323 319 318 318 317 316 313 314 317 314 314 323 326 318 314 314 313 313 313 312 313 314 314 314 314 314 313 314
317 316 315 315 316 316 316 316 316 316 316 316 316 315 315 314 314 315 314 314 313 310 310 312 311 312 312 312 312 311 312 312 311 312 312 312 313 312 312 312 311 311 311 311 311 313 313 310 311 313 312 315 316 313 317 319 314 313 317 321 321 320 321 320 317 319 318 316 316 313 314 323 325 319 316 315 313 314 313 311 312 313 314 314 314 315 315 314
316 316 316 316 317 316 316 316 316 316 316 315 315 315 315 314 314 315 315 317 315 310 310 311 311 312 312 312 312 312 314 313 311 312 312 312 313 312 312 312 311 311 311 311 312 313 312 311 312 314 314 316 316 313 316 319 315 317 319 321 324 321 323 321 317 321 324 317 315 315 316 317 316 318 321 318 313 314 314 313 313 312 313 315 315 315 315 315
316 316 316 317 316 315 316 316 315 316 315 315 315 314 314 314 314 314 314 317 315 310 309 310 311 312 312 311 311 311 313 313 313 312 311 312 312 311 312 311 312 313 312 311 313 313 312 313 314 315 315 315 315 315 319 318 315 319 322 322 323 321 323 322 318 321 321 317 319 320 315 314 320 326 323 317 316 316 315 316 315 312 313 315 315 315 315 315
316 316 316 316 316 316 316 316 315 315 315 315 315 314 315 314 313 314 313 314 312 310 310 310 311 312 311 311 310 310 311 312 313 312 311 312 312 311 312 311 311 314 312 311 316 316 313 313 313 315 316 316 318 321 324 322 315 316 321 323 325 324 323 320 320 323 317 315 323 324 316 313 322 329 322 314 317 318 318 317 313 312 314 316 315 316 315 316
316 316 316 316 316 315 315 316 315 314 314 315 314 314 314 313 313 314 312 312 311 310 309 309 311 312 311 310 310 310 311 311 311 311 311 312 312 310 312 311 310 316 319 317 318 316 311 309 312 315 314 315 318 317 316 319 316 315 322 325 324 326 326 323 327 326 315 319 329 327 318 313 316 325 324 317 318 320 317 317 315 312 313 314 315 316 315 316
316 315 315 316 316 315 315 315 315 314 314 313 314 314 314 312 313 314 312 311 312 310 309 309 311 311 310 310 310 311 312 310 310 311 311 311 311 310 311 312 312 316 320 319 317 315 311 310 312 312 310 311 316 315 313 316 316 318 327 325 318 322 326 327 328 320 315 324 329 321 316 314 315 323 325 319 319 319 317 317 319 316 313 313 314 315 315 315
315 315 315 315 315 314 314 315 314 314 314 313 314 313 312 311 313 315 312 311 313 310 309 310 311 311 310 310 311 312 313 312 310 310 311 311 311 310 312 314 314 314 315 316 318 316 314 314 313 311 310 312 318 318 314 316 318 320 323 319 316 318 318 320 323 319 319 322 318 314 315 316 317 319 319 317 317 317 315 315 317 315 313 314 314 315 315 314
315 315 314 314 314 313 314 314 314 314 314 314 313 311 312 313 313 315 312 311 314 311 309 311 311 311 310 310 311 312 313 313 311 310 311 311 311 311 312 314 314 314 315 317 317 315 316 316 314 313 312 311 316 316 314 317 317 318 317 315 319 321 314 315 319 318 319 319 315 312 315 317 317 317 317 317 315 313 313 313 315 314 314 315 314 314 314 313
314 314 314 314 313 312 313 314 314 314 314 314 312 310 312 313 314 315 312 311 313 310 309 311 311 311 310 310 311 312 314 313 310 311 311 311 311 311 312 313 312 316 319 317 315 314 317 317 314 315 312 312 316 316 317 320 317 318 321 318 320 324 320 318 320 320 320 320 315 311 315 321 320 317 318 314 310 311 313 315 315 315 315 315 314 313 313 313
314 314 313 313 312 312 312 313 314 314 313 312 311 310 312 313 313 313 312 311 311 309 309 311 311 311 311 311 311 312 315 313 311 311 312 311 311 310 311 311 311 316 318 315 314 314 314 314 315 314 311 312 315 315 317 319 317 319 321 320 319 323 327 324 321 325 325 319 315 313 318 325 319 315 316 311 309 311 311 313 314 314 314 313 313 312 312 313
314 313 313 312 312 312 312 313 314 313 312 310 310 311 312 312 313 314 312 311 310 309 310 311 311 311 311 312 312 312 314 314 312 312 312 312 311 311 312 311 311 313 313 313 314 314 313 313 315 314 311 311 312 313 314 314 316 318 317 321 322 320 326 323 314 317 318 317 319 315 316 321 316 315 317 312 313 312 310 311 312 313 313 311 311 311 311 313
314 313 312 312 312 312 312 313 313 312 311 309 310 312 312 311 314 315 312 310 310 310 310 311 311 311 311 312 312 312 314 314 312 311 312 312 311 311 311 311 312 311 312 313 314 315 316 315 313 314 314 311 308 310 311 309 314 319 318 320 320 316 320 320 314 314 314 317 322 315 313 319 317 318 320 313 313 314 312 311 309 310 311 310 311 311 311 313
313 312 312 312 312 312 312 312 312 311 310 310 311 314 314 313 314 313 311 310 310 311 311 311 311 310 311 312 311 312 314 314 312 312 312 312 313 313 311 311 312 311 311 311 312 316 319 317 313 312 314 312 310 312 313 310 310 315 316 316 317 317 318 318 316 317 314 314 320 316 314 318 317 321 322 315 315 315 312 312 310 310 311 310 312 312 311 313
312 312 311 311 312 312 312 311 311 311 310 310 311 315 318 319 316 312 311 310 310 311 311 311 311 310 311 312 311 312 313 313 312 313 313 312 313 313 310 311 313 311 310 310 314 319 317 318 316 312 313 313 312 313 316 314 311 312 313 312 315 318 320 318 316 319 320 317 320 318 315 320 322 323 324 319 319 316 312 313 312 309 310 311 312 312 311 313
311 311 311 311 312 312 312 311 311 311 310 310 310 315 319 320 316 312 310 311 311 311 311 312 312 311 312 312 312 313 313 313 312 313 314 312 312 312 311 311 313 312 311 311 315 317 313 317 319 313 311 313 314 314 315 316 313 313 314 313 313 315 316 317 316 321 324 320 321 318 317 329 331 321 319 318 318 317 312 313 311 307 310 312 311 312 312 313
311 311 311 311 311 312 311 311 311 310 311 309 310 315 317 317 316 314 311 311 312 314 313 313 312 311 312 312 312 312 312 314 312 313 315 313 311 312 311 311 312 313 312 312 316 317 314 316 318 314 313 314 316 315 314 315 316 314 314 314 315 314 316 317 315 319 321 318 324 321 318 333 335 318 315 316 315 314 309 309 310 308 310 312 311 312 313 313
311 312 312 311 311 311 310 311 310 309 310 310 310 314 315 315 317 317 313 312 315 317 315 312 312 312 313 312 312 313 313 313 313 313 315 314 312 313 312 311 311 311 312 314 316 317 317 318 317 316 315 315 316 313 309 312 318 316 315 317 317 315 316 317 318 321 318 314 321 320 315 331 335 317 314 314 310 309 308 308 308 308 310 312 312 312 312 313
312 312 312 310 310 310 310 310 310 309 311 313 312 314 313 314 318 317 315 314 315 317 316 314 313 312 313 313 313 313 312 312 313 312 314 314 313 312 311 310 312 312 312 314 316 314 315 318 318 315 314 314 316 314 309 311 316 315 316 317 317 315 315 319 323 326 321 315 317 315 312 326 333 315 308 309 307 307 308 309 309 309 311 312 312 313 312 312
312 312 311 310 310 310 309 309 310 309 311 314 316 315 313 314 317 316 316 315 316 319 321 318 315 313 314 314 313 313 312 312 313 312 314 315 313 311 310 310 312 312 311 313 315 313 313 317 318 316 316 316 317 316 313 313 314 316 317 316 314 314 313 316 319 317 317 320 319 316 315 324 332 318 308 309 311 308 307 309 311 312 312 312 313 313 311 311
312 312 312 311 309 310 310 310 310 309 310 314 316 316 315 316 315 314 315 316 316 320 321 318 315 315 317 316 313 313 313 314 316 314 316 317 314 311 310 310 311 312 312 312 311 312 317 319 318 317 317 315 315 315 315 315 314 315 317 314 313 316 314 315 318 314 316 321 318 316 319 321 324 319 311 313 317 313 308 308 310 312 312 313 314 312 311 310
312 312 312 311 310 311 311 311 311 309 310 313 316 316 317 317 315 313 315 316 316 317 318 318 316 316 316 315 313 313 312 316 319 316 315 319 318 312 309 309 310 310 311 312 310 313 320 320 316 316 315 314 315 316 317 317 315 314 316 316 315 317 316 316 318 316 317 320 318 319 321 317 316 317 314 315 318 317 312 308 308 310 312 313 313 313 312 311
312 312 311 311 311 311 311 311 311 309 309 312 314 314 315 316 315 315 315 316 315 316 318 318 317 316 315 314 314 314 312 316 319 316 317 319 317 311 308 308 310 309 310 311 310 316 321 317 314 316 315 314 316 318 317 316 315 314 316 316 315 316 317 317 316 314 315 317 317 319 320 316 314 315 316 316 317 317 312 307 307 310 310 311 312 313 313 312
310 311 310 310 311 311 311 311 310 310 310 311 313 314 314 315 315 315 316 316 314 315 318 317 316 317 317 314 315 314 313 315 316 315 318 317 314 312 310 309 309 308 310 311 310 314 318 316 315 316 314 314 317 318 317 315 315 315 314 315 315 315 316 316 315 314 315 315 313 315 318 316 313 315 317 316 314 313 311 308 308 309 309 311 311 311 313 313
307 309 310 310 311 311 310 310 310 310 310 312 313 313 314 314 314 315 317 317 315 316 317 317 317 317 317 316 316 315 314 315 315 315 316 315 314 315 313 311 310 307 309 312 311 311 314 317 317 315 313 314 317 317 317 316 315 315 315 315 314 314 315 315 315 314 315 315 314 314 315 315 314 317 318 314 310 309 309 309 309 309 309 311 311 311 312 312
304 307 308 309 309 309 308 309 311 310 310 312 313 313 313 313 314 315 316 316 316 316 316 316 317 318 317 317 317 316 314 315 316 316 314 314 314 315 314 313 313 309 309 313 312 309 312 317 318 314 312 314 316 317 317 317 316 315 316 315 314 314 314 314 314 314 314 314 314 314 315 315 314 314 313 312 311 310 309 309 309 309 310 311 312 311 311 311
303 304 306 308 310 310 309 310 311 310 310 311 312 313 313 312 313 314 315 313 313 315 315 315 317 317 316 317 318 317 314 314 316 315 313 314 313 313 313 312 311 311 312 313 313 312 313 316 316 315 314 315 316 316 316 316 315 315 316 317 315 314 314 313 313 314 314 314 314 315 315 314 313 312 311 311 310 308 309 310 310 309 310 311 312 312 311 311
303 304 305 308 311 310 309 310 311 310 310 311 311 312 312 312 313 314 315 313 311 312 312 313 315 316 316 316 317 315 312 312 314 312 311 312 311 310 312 311 309 312 314 313 315 316 317 317 317 316 316 314 313 314 315 314 314 314 315 316 315 313 313 313 314 314 314 314 314 314 313 312 313 313 313 313 311 309 309 310 310 310 310 311 312 312 311 312
Wind_Speed
49 51 49 49 50 44 40 40 39 39 39 38 37 36 35 34 33 32 32 31 29 27 26 27 27 26 26 26 25 26 27 26 26 27 27 25 21 17 16 16 17 16 14 16 16 17 17 15 13 6 8 5 6 8 5 5 5 2 3 2 3 3 3 4 5 6 7 7 10 13 15 13 7 10 16 13 15 16 11 10 9 7 7 6 7 12 22 26
50 52 49 50 52 47 42 41 40 39 39 38 37 37 36 35 34 33 33 32 30 28 27 27 27 27 27 26 25 24 26 27 26 28 28 25 20 15 15 14 14 15 14 13 14 15 15 14 14 6 8 7 6 7 6 4 6 5 3 2 4 4 3 3 6 11 10 11 14 14 15 16 12 14 16 9 11 16 11 10 11 11 12 11 14 17 20 24
50 53 51 49 52 51 46 43 41 38 39 38 37 37 36 35 35 34 34 32 31 29 27 27 27 27 27 27 26 23 25 26 26 29 30 27 20 14 14 14 13 14 14 13 13 13 14 14 11 4 9 9 6 7 6 3 5 7 3 1 5 6 2 4 5 14 15 19 19 14 15 16 15 17 15 11 12 12 10 11 12 16 19 18 19 20 21 23
48 52 52 48 49 50 47 45 44 40 39 40 38 37 36 35 35 34 34 33 32 30 28 28 27 27 26 26 26 25 24 20 24 33 32 29 22 15 15 16 14 14 14 14 13 12 14 14 10 1 8 9 8 9 7 5 5 5 6 4 5 4 1 3 0 11 21 26 24 17 13 13 16 17 14 15 11 4 12 18 14 17 22 22 23 22 21 23
46 47 50 50 49 48 47 46 46 42 40 41 40 38 37 36 35 35 34 33 32 30 29 28 27 27 25 24 24 25 21 8 16 33 35 31 23 17 17 17 16 15 14 14 13 13 13 12 11 2 5 5 7 7 6 10 9 3 5 8 4 3 3 2 0 10 23 26 22 17 11 13 16 15 16 17 9 6 15 19 17 18 21 21 22 23 22 22
46 45 49 51 49 47 48 46 45 43 41 42 42 40 38 36 36 35 34 33 31 30 29 28 26 25 23 23 22 23 22 6 5 23 35 33 24 19 20 19 17 15 14 15 15 14 13 10 10 3 4 6 7 6 7 11 10 3 6 5 1 3 4 4 2 9 21 23 19 15 13 17 14 11 16 15 9 11 15 17 18 17 18 20 21 22 22 22
47 45 49 52 51 49 49 47 45 44 41 42 41 40 39 37 37 35 34 33 31 30 28 28 26 24 23 22 21 21 25 13 3 9 30 32 22 19 22 22 19 16 15 17 17 17 15 12 10 4 5 7 8 8 10 13 12 6 5 2 1 3 5 6 3 8 20 21 18 18 17 17 12 8 13 11 8 11 12 14 19 18 17 20 21 21 20 19
49 45 47 51 52 52 53 50 47 44 41 41 39 37 37 37 37 36 34 33 32 31 28 28 26 25 23 23 25 22 23 21 3 4 24 29 22 19 23 24 20 17 16 18 21 21 18 15 13 5 3 7 9 11 13 12 9 7 5 2 2 2 4 7 4 8 17 18 18 19 15 14 12 9 11 11 10 12 10 11 18 22 21 22 20 19 18 18
49 46 47 51 55 56 56 52 48 45 41 40 37 35 35 35 36 36 35 34 33 32 29 28 26 25 24 25 27 18 21 29 13 5 15 22 22 21 22 25 23 19 17 17 21 23 21 19 15 5 4 11 11 13 17 10 5 8 9 6 5 3 3 7 6 8 11 14 18 15 8 10 11 7 8 12 13 12 11 11 17 22 23 22 20 18 18 17
50 48 49 53 57 59 58 52 48 46 41 38 36 34 34 33 34 35 35 34 34 33 30 28 27 27 25 27 24 12 20 32 20 7 8 15 22 23 24 26 26 21 17 16 19 23 23 19 14 6 7 14 9 11 17 9 4 7 10 8 7 5 3 6 6 6 7 10 15 12 6 7 10 6 5 13 16 13 13 14 17 20 22 21 19 18 17 17
52 51 53 55 55 54 54 50 46 44 40 36 34 34 33 32 32 34 35 34 35 33 31 30 29 29 27 28 23 12 18 28 24 14 9 14 22 25 26 27 29 25 19 15 18 26 24 18 15 7 6 8 8 14 16 8 7 5 13 7 6 5 2 5 6 7 6 5 9 10 6 4 6 4 5 14 19 17 16 17 18 19 20 20 20 19 18 18
54 53 55 56 53 50 49 47 44 42 39 37 35 33 32 31 31 33 34 34 35 33 31 31 30 29 27 26 24 19 17 21 23 17 10 14 21 24 23 25 28 25 20 17 21 29 24 19 17 6 6 8 10 10 9 13 13 7 14 5 2 3 1 6 7 8 5 3 8 10 5 1 2 7 10 15 21 21 19 19 20 19 19 19 19 19 19 18
57 55 54 54 52 49 47 45 44 43 41 39 36 35 33 32 31 31 32 32 33 33 31 31 30 30 27 20 21 24 18 16 20 16 12 16 19 22 22 23 27 22 15 18 27 32 23 22 22 7 11 11 10 8 11 19 12 6 7 4 3 2 2 7 8 7 4 5 9 7 2 5 6 13 14 16 24 24 21 21 22 20 19 18 18 18 19 19
59 56 54 56 52 49 48 44 44 44 42 40 37 36 33 32 30 29 30 31 31 31 29 30 30 29 26 16 17 25 18 14 19 16 15 19 20 23 22 21 26 22 15 20 30 29 22 26 26 10 13 13 14 13 14 13 6 4 2 2 4 2 3 5 6 7 4 5 8 4 2 5 6 13 15 19 25 24 22 22 22 22 21 20 20 19 19 20
60 57 56 57 56 51 47 45 45 44 42 40 38 36 34 32 30 29 28 27 28 29 29 30 29 27 21 11 15 23 17 15 22 19 15 18 21 25 24 19 22 23 18 24 29 24 22 25 21 9 15 14 13 10 6 5 3 1 3 3 1 4 4 5 4 8 5 4 6 4 2 5 6 7 13 22 24 23 23 22 21 21 22 22 22 21 21 20
61 60 58 56 56 52 48 48 46 45 43 41 39 36 35 32 29 28 26 25 26 27 29 29 28 25 15 7 14 22 17 16 23 21 17 18 20 25 27 21 21 22 21 25 25 21 23 21 13 9 16 13 7 4 3 3 4 1 3 3 2 4 3 3 3 5 5 3 3 3 2 3 4 5 14 19 21 22 22 22 21 21 21 23 24 23 23 22
61 60 58 55 54 52 50 49 47 46 44 42 40 37 35 32 29 27 24 24 24 26 30 29 28 22 8 6 16 24 22 19 24 24 22 23 22 24 27 25 25 25 25 24 22 21 20 14 8 8 12 9 4 3 3 3 4 3 1 3 3 4 4 2 3 4 5 5 4 3 2 4 5 5 14 17 18 20 19 21 22 21 20 22 24 25 24 24
61 58 56 54 52 51 51 49 49 47 44 44 41 37 35 31 29 26 26 26 24 24 24 22 23 14 4 14 22 30 32 23 24 28 27 27 23 20 22 25 28 29 26 21 18 19 15 9 6 4 7 7 5 4 4 5 4 3 3 2 3 2 4 4 3 4 7 5 5 4 3 8 7 4 13 17 18 19 20 22 21 21 21 21 24 26 26 26
62 58 56 57 53 52 52 50 50 48 47 46 41 40 37 33 30 25 27 30 29 20 11 21 27 6 3 23 26 29 36 26 24 30 30 29 23 19 22 25 31 30 23 14 12 16 12 7 7 6 7 7 6 6 5 6 5 6 6 5 4 3 3 5 4 5 7 5 5 6 6 9 8 6 11 16 19 20 22 21 21 20 21 23 24 25 25 27
64 60 58 59 55 55 53 52 52 51 53 49 49 47 37 33 22 17 30 34 36 20 3 28 35 2 4 26 26 26 31 25 26 31 31 32 26 23 27 30 30 23 15 9 7 15 13 7 8 9 9 8 6 6 6 8 7 4 4 5 6 5 4 4 3 4 4 5 6 7 8 9 8 7 10 16 17 17 19 19 22 23 22 24 26 25 25 25
66 62 59 57 56 56 52 54 53 53 56 52 57 49 38 41 19 19 40 32 35 19 2 28 31 3 15 32 29 32 33 22 24 32 30 32 28 22 24 26 20 11 11 12 10 15 13 7 10 9 8 8 7 6 6 10 9 5 4 5 6 5 4 3 2 3 1 3 5 5 6 9 9 8 11 14 12 15 21 21 23 27 26 25 26 26 26 25
68 63 60 56 57 55 52 55 53 54 55 53 58 45 42 49 19 26 43 20 24 15 2 32 26 6 25 33 30 38 35 19 18 28 29 32 29 19 18 18 11 7 13 15 10 11 10 7 10 11 10 8 7 6 7 10 9 5 3 4 6 4 3 2 2 1 1 1 4 2 4 9 10 8 9 12 14 18 26 26 26 28 28 28 27 27 27 26
66 62 60 57 56 54 54 56 53 55 55 55 55 40 45 43 10 24 37 15 16 9 7 33 21 14 28 28 31 37 32 20 17 27 31 31 29 22 19 13 9 10 12 12 8 8 6 5 9 12 11 9 8 7 6 9 7 5 2 4 5 4 4 2 2 2 1 1 1 1 2 6 8 6 7 14 21 21 25 28 28 28 28 29 29 28 29 28
62 61 58 57 55 54 55 55 54 55 54 55 46 35 47 34 7 29 34 13 7 4 16 31 17 21 29 23 29 31 26 23 22 30 34 32 27 21 19 15 11 9 10 12 10 7 4 5 13 13 7 7 9 8 7 6 5 5 4 4 4 5 5 3 3 3 2 2 1 4 3 5 6 6 7 13 19 18 21 26 28 30 30 28 28 29 30 30
61 61 57 57 55 55 57 54 55 55 52 50 38 34 46 27 14 36 29 9 4 3 18 25 11 20 28 23 25 24 21 18 22 33 36 35 29 19 16 17 13 7 10 13 9 7 5 8 15 13 7 6 7 8 7 5 4 5 5 5 6 7 5 5 6 5 3 3 3 3 0 6 5 7 9 10 9 11 17 21 26 33 32 30 30 31 31 31
61 59 58 58 57 59 57 52 54 54 50 46 37 38 43 28 27 34 18 5 3 3 14 19 11 17 24 22 23 22 16 10 18 32 36 33 30 22 14 10 8 7 12 11 5 4 4 7 11 9 9 8 5 7 6 5 5 4 5 4 6 7 7 9 8 5 3 3 3 3 5 5 6 5 9 8 6 10 12 14 22 31 31 32 34 32 31 31
59 57 59 58 60 64 57 50 53 54 47 41 38 39 38 36 34 23 8 4 3 5 11 12 11 18 21 23 28 19 8 9 15 26 34 30 25 22 13 6 4 7 11 9 5 3 3 6 7 6 8 7 6 7 6 5 6 4 3 4 8 9 8 9 9 4 3 3 2 2 4 3 5 6 8 6 6 9 9 9 16 23 28 32 35 32 30 30
57 57 60 59 63 63 53 51 54 51 44 40 43 41 38 43 35 13 5 3 4 7 9 8 10 16 19 25 28 13 8 19 15 17 33 29 20 17 10 7 7 8 9 9 6 2 3 7 8 7 7 5 6 6 6 6 5 5 3 5 7 8 8 8 7 4 1 3 2 4 3 2 6 7 6 1 4 7 8 10 13 19 27 30 32 32 29 28
57 58 60 61 62 54 45 50 52 45 41 44 48 44 41 43 28 6 3 4 5 6 8 12 11 15 21 21 18 9 12 18 8 16 33 26 18 13 6 10 10 6 4 6 7 2 1 7 8 9 7 5 5 4 4 5 4 4 3 5 4 4 5 5 5 4 3 2 5 6 4 3 5 6 4 1 2 6 8 9 11 18 27 29 30 31 29 28
60 59 61 63 58 47 42 46 48 44 44 45 45 41 39 33 14 3 5 5 5 5 9 14 11 15 22 15 8 8 10 6 8 20 24 17 17 12 7 12 9 5 2 2 5 1 1 3 4 4 4 5 5 2 1 3 3 4 5 6 6 5 4 4 3 4 3 2 6 7 4 3 3 5 4 4 5 7 7 6 8 15 22 26 27 27 28 28
61 60 62 62 53 46 44 46 48 49 47 43 39 36 30 16 3 3 8 6 6 4 7 10 8 14 20 13 7 8 6 3 11 20 14 8 10 7 6 7 4 4 3 4 4 3 3 3 2 1 3 5 6 3 2 1 3 5 4 4 4 3 4 4 4 2 2 5 6 4 2 3 4 5 5 5 6 6 7 7 8 10 15 20 21 21 22 24
61 61 61 58 48 44 45 49 53 53 46 42 40 35 20 6 1 2 6 8 6 5 7 10 11 13 16 13 9 7 6 3 8 14 10 7 7 6 6 5 5 5 3 3 3 2 2 0 1 1 1 4 5 3 3 4 3 4 4 6 4 0 2 1 2 1 3 5 4 2 1 2 5 7 8 8 9 8 8 10 11 12 14 16 17 18 18 18
61 61 57 52 44 42 43 49 57 53 43 38 36 24 9 5 6 4 6 7 6 8 10 11 13 14 14 12 8 6 6 4 7 10 8 7 7 7 5 5 7 6 3 5 5 3 1 4 2 2 1 4 5 4 3 0 1 4 5 6 5 3 3 2 4 2 3 4 3 2 1 2 4 6 10 13 14 14 10 9 12 15 18 17 16 16 15 16
61 59 53 45 41 41 42 50 58 51 41 36 27 11 3 7 8 5 7 6 4 9 11 11 13 15 13 10 8 8 5 3 7 9 8 8 8 8 7 7 7 5 4 4 4 6 5 2 3 2 1 4 4 3 5 5 4 4 4 6 5 4 4 4 3 3 4 3 3 2 1 3 3 4 8 9 10 11 9 9 12 15 16 15 14 13 13 14
59 57 50 41 38 40 42 53 57 47 42 35 17 4 6 9 6 6 8 6 5 9 11 15 17 14 10 6 7 9 5 3 7 7 7 9 9 9 8 8 8 6 6 6 3 4 5 2 2 1 1 4 4 2 3 6 3 4 3 5 4 5 5 3 4 5 5 1 1 2 3 5 4 5 8 5 3 2 8 11 15 17 15 14 13 12 12 12
57 54 47 39 39 40 44 56 54 44 42 30 10 6 9 6 4 6 7 6 9 13 14 14 12 11 9 5 7 10 4 4 9 7 5 7 7 9 9 7 9 8 7 7 3 2 5 2 4 3 2 1 3 1 2 2 3 2 3 4 5 4 6 4 2 1 4 2 3 2 3 5 4 6 7 1 2 3 5 9 14 18 18 16 14 12 12 12
56 51 44 39 40 40 46 56 51 43 37 20 8 9 5 2 5 6 7 10 14 17 17 12 8 9 10 7 9 13 6 5 9 7 6 6 5 10 11 7 10 11 8 6 3 2 5 1 4 1 1 1 1 3 2 2 2 4 3 5 3 3 4 3 2 2 3 2 4 2 4 5 3 4 5 2 4 7 6 6 9 14 17 17 15 13 12 11
53 46 40 39 40 39 45 52 48 40 26 10 7 8 2 2 5 8 13 15 17 17 13 9 7 8 10 9 9 12 9 8 8 6 6 6 4 9 12 8 9 12 11 8 4 2 5 3 3 1 1 2 1 3 2 1 2 4 3 2 3 3 2 1 3 1 1 3 4 3 4 4 4 5 4 3 8 9 8 7 7 10 15 18 16 15 14 13
48 38 30 37 39 35 41 48 45 33 16 7 8 5 2 4 2 11 24 20 14 15 11 7 8 7 8 10 9 10 10 9 9 6 5 6 4 7 14 9 6 12 16 10 4 3 4 4 2 2 1 1 2 1 5 3 1 1 1 2 1 2 4 3 3 4 3 3 4 3 2 3 5 6 5 8 10 10 10 9 8 12 17 20 18 17 17 16
45 27 19 37 40 31 38 43 35 22 9 7 8 3 2 4 1 13 33 28 11 8 8 8 10 9 8 9 10 10 8 7 10 7 4 7 5 6 12 12 6 10 13 8 4 4 3 3 2 1 2 1 2 3 5 7 4 2 1 1 1 0 1 1 1 3 4 3 3 2 2 5 6 5 7 9 10 9 11 9 9 14 20 21 19 18 18 17
39 15 13 39 38 31 40 34 19 12 6 4 5 2 3 6 3 9 26 28 13 3 7 10 10 10 9 10 11 9 6 7 10 7 3 8 8 4 11 16 12 11 10 5 4 4 2 3 4 2 1 3 3 3 2 5 6 6 5 5 6 3 3 2 3 2 2 3 4 4 3 7 6 4 4 7 7 6 9 11 11 16 21 22 20 18 17 17
26 7 18 42 38 37 40 21 8 10 6 4 5 3 4 7 7 6 11 18 12 3 6 8 7 8 9 10 11 10 9 7 9 9 4 7 9 4 10 21 22 19 14 5 4 5 4 4 4 2 3 4 5 4 2 2 2 4 3 4 5 4 4 5 5 3 1 2 2 3 2 6 6 4 3 5 4 3 5 11 14 18 21 22 21 18 17 18
15 11 25 40 38 40 32 10 6 7 3 4 4 4 5 4 5 6 6 11 9 3 5 6 6 8 7 7 10 11 11 7 8 11 6 5 8 3 8 21 24 19 12 5 3 5 5 4 4 2 1 3 4 4 2 1 2 2 3 3 4 4 4 5 5 4 2 3 2 2 4 6 6 5 4 5 5 3 2 6 12 16 19 21 22 21 20 20
19 26 31 33 34 36 22 6 10 11 5 5 4 3 5 3 4 8 8 9 6 4 6 5 6 8 5 7 10 11 11 7 5 8 4 4 7 1 4 19 23 15 10 10 10 9 5 3 4 4 2 2 3 3 3 2 2 2 2 2 3 3 4 3 1 2 1 4 6 5 5 6 6 5 4 5 5 5 4 3 7 12 16 20 22 22 22 22
23 21 24 30 35 32 14 4 8 10 7 7 6 6 5 3 2 8 10 7 4 5 6 3 6 7 6 8 9 8 10 6 4 7 4 4 4 1 2 17 22 15 10 15 18 14 7 4 5 6 5 6 6 4 4 3 2 1 1 2 4 5 6 4 2 2 4 4 5 5 5 6 7 6 4 5 4 4 6 6 7 10 14 17 20 22 23 23
17 8 12 21 29 27 13 6 4 8 9 8 5 6 6 4 2 6 10 6 1 5 5 2 7 9 7 11 10 8 11 4 3 6 6 5 3 2 2 11 14 12 9 15 22 15 4 2 6 8 10 10 7 4 6 8 6 5 7 7 7 7 8 7 3 4 6 3 3 6 6 7 10 7 5 6 5 5 6 7 10 12 14 16 18 20 22 23
10 9 11 12 16 17 12 9 6 8 11 11 6 6 9 8 4 3 5 2 3 7 5 3 7 10 10 14 11 10 12 4 5 8 6 5 2 2 3 5 6 6 6 13 22 13 3 4 7 9 11 9 6 7 9 12 11 12 13 11 10 9 9 9 7 9 7 4 6 9 7 9 12 9 7 8 7 5 6 11 16 16 16 17 18 20 21 22
4 11 19 17 10 8 11 13 12 11 12 10 5 6 10 11 9 7 3 2 5 8 4 2 7 11 13 15 10 8 10 5 4 7 5 4 3 3 4 4 3 2 2 8 14 7 3 6 6 6 9 6 5 7 10 12 11 12 14 14 13 12 11 11 13 13 9 7 11 13 12 13 12 7 7 9 9 10 12 15 17 16 17 19 20 22 23 23
4 5 15 18 7 3 10 11 8 10 12 9 4 6 12 14 13 8 3 4 5 4 4 6 8 9 12 13 10 9 11 9 6 5 4 5 5 4 3 2 1 2 3 4 5 2 3 5 5 7 8 5 4 6 8 10 10 8 11 14 14 14 15 16 17 17 15 13 14 15 14 14 10 6 8 10 12 14 12 11 13 16 19 20 22 24 25 25
3 4 7 11 2 4 13 12 8 8 9 8 5 5 10 14 13 8 3 7 10 6 5 10 11 9 9 11 12 10 13 13 10 7 7 7 4 3 4 4 3 1 3 3 2 1 2 3 3 6 5 4 1 2 4 7 8 7 9 10 11 12 14 16 17 16 13 13 13 11 10 11 8 9 11 13 11 10 8 10 15 19 20 21 22 24 25 25
4 5 5 7 2 5 12 9 8 9 7 7 7 6 9 13 13 9 2 3 10 9 7 11 12 8 7 9 11 11 13 13 13 16 19 16 14 10 5 6 8 6 2 3 3 2 2 2 1 5 5 3 2 2 3 3 2 4 8 10 12 13 13 14 14 12 10 11 12 10 9 11 8 8 11 13 9 10 13 16 18 19 20 22 22 24 25 25
6 5 6 7 3 4 10 9 8 9 9 10 10 7 8 10 10 9 4 0 4 7 9 14 13 8 6 9 11 11 15 16 17 25 27 22 20 15 10 14 20 14 7 5 3 2 5 5 2 4 6 3 3 1 3 4 2 6 10 12 15 14 12 10 9 11 13 13 11 11 12 13 8 7 10 9 7 11 16 20 19 19 21 22 22 23 24 25
Wind_Direction
219 220 216 212 209 204 198 198 200 200 199 195 194 194 194 196 198 198 199 198 198 199 197 198 199 201 203 204 206 207 206 202 200 203 207 208 206 207 211 216 219 218 216 215 221 225 230 235 226 265 326 318 327 307 271 247 227 177 119 160 250 228 207 219 205 179 153 151 177 180 167 149 132 129 123 118 132 127 125 130 127 135 134 148 164 164 171 174
218 218 213 211 210 205 198 200 201 200 200 196 194 193 194 195 198 200 201 201 200 199 200 199 200 201 203 203 204 205 204 202 202 206 206 205 203 207 209 209 215 214 212 209 207 208 214 221 216 239 330 327 315 298 275 249 208 189 137 162 234 218 228 264 173 156 142 154 169 172 170 163 156 149 140 129 134 134 119 115 130 131 128 142 154 161 172 177
218 216 211 206 205 206 202 203 204 199 198 198 195 193 192 193 197 201 202 203 202 200 201 202 201 202 203 203 204 205 205 206 213 214 208 205 206 212 214 208 209 213 211 206 199 198 201 204 201 228 328 328 306 279 265 241 206 206 176 162 243 231 286 349 149 164 159 155 159 163 169 170 167 159 155 153 149 149 148 144 142 140 143 153 163 169 175 180
218 214 209 205 203 205 202 201 204 199 196 197 195 192 192 192 195 199 202 203 203 202 201 203 204 203 204 204 205 208 205 210 224 219 209 206 210 215 217 209 208 212 209 203 197 194 196 194 181 150 334 321 304 285 252 227 219 197 175 196 255 249 252 340 248 175 164 156 160 162 160 167 172 171 168 156 147 179 183 179 180 169 166 166 170 177 181 185
216 212 207 205 200 199 200 200 201 198 195 197 196 193 191 190 193 197 200 202 201 201 201 203 203 202 204 203 206 209 201 206 237 222 212 207 211 222 218 209 209 211 209 203 197 194 191 189 181 148 341 305 301 293 247 232 226 222 214 214 255 262 193 208 81 155 158 155 158 156 148 160 166 174 177 163 159 215 199 197 207 197 188 184 180 182 185 189
211 212 207 206 202 199 202 203 201 198 195 196 196 194 192 190 192 195 197 199 199 199 200 201 201 200 201 202 207 206 195 182 273 225 213 206 212 226 215 206 207 209 211 204 198 195 184 182 180 153 341 300 293 275 256 249 225 237 255 215 270 247 188 175 149 146 156 153 153 151 144 152 154 172 184 180 189 204 201 205 210 208 202 195 188 186 189 193
206 209 206 206 205 204 204 202 199 197 195 196 196 195 193 189 191 195 196 196 198 197 198 199 197 196 195 197 196 191 192 195 351 220 204 202 213 223 208 201 203 206 208 204 202 192 179 176 167 133 333 292 286 272 265 260 224 211 258 249 65 204 173 167 136 139 158 156 155 152 145 153 153 168 187 191 191 184 187 197 204 204 194 191 190 190 195 199
202 205 205 205 208 207 203 199 196 194 194 195 196 195 193 191 192 194 194 195 196 196 197 195 193 193 190 186 180 177 192 201 201 143 185 197 211 212 199 193 194 199 200 201 201 188 174 168 161 145 316 283 298 305 297 280 229 207 232 216 155 183 181 177 143 129 151 151 155 151 146 165 168 168 184 181 162 161 165 171 187 193 187 188 194 194 197 201
199 202 204 204 204 204 202 198 194 194 194 194 194 193 192 191 192 195 194 193 194 196 195 192 191 189 187 184 178 176 196 200 199 132 167 192 208 205 197 192 188 188 189 190 190 180 168 158 151 146 305 300 302 303 302 296 227 216 213 188 160 173 194 183 166 134 137 144 154 147 128 159 169 167 181 180 164 157 165 163 173 183 185 186 192 196 197 201
199 200 205 202 195 193 196 195 192 193 193 194 192 190 191 190 192 194 193 192 194 196 193 190 189 187 187 184 177 182 201 200 202 197 176 191 202 199 194 194 188 180 176 179 181 172 160 150 148 165 284 299 291 288 295 284 244 231 196 167 147 152 183 186 181 160 142 146 155 147 124 145 159 162 184 186 177 170 171 168 172 180 184 187 190 197 201 204
198 197 202 201 192 187 188 189 189 189 187 187 184 184 187 187 190 192 191 191 193 194 191 188 188 188 189 184 181 190 200 202 207 213 213 197 199 197 190 192 188 177 169 172 181 171 156 147 153 171 261 293 307 303 301 302 304 210 160 135 128 140 185 195 178 170 156 154 163 142 121 121 140 172 205 187 186 189 182 172 177 184 187 190 192 197 204 207
196 195 200 198 190 186 185 184 183 182 180 178 177 177 180 182 187 191 189 190 192 193 190 187 189 191 189 187 193 199 193 197 203 207 208 192 197 197 191 191 186 177 171 172 175 171 161 153 155 174 262 284 318 311 306 324 319 193 157 123 122 110 213 200 174 176 172 163 167 135 114 302 195 212 213 192 189 192 189 180 179 186 191 195 198 202 206 208
194 193 199 195 187 184 183 181 177 178 177 175 174 173 176 178 183 190 190 189 191 190 187 186 189 192 188 185 201 206 196 186 190 196 191 181 189 189 185 187 182 174 176 181 172 170 171 162 161 207 280 279 295 288 299 315 308 201 163 120 137 60 290 211 180 180 185 170 172 148 181 260 243 223 210 189 187 186 188 188 184 188 192 196 202 206 208 207
193 192 196 192 187 182 179 179 177 177 176 173 171 170 173 175 179 187 188 187 187 184 184 184 186 189 188 187 203 203 196 186 188 189 179 175 180 180 177 179 180 176 177 182 173 169 172 164 168 222 288 274 270 280 298 308 290 199 181 140 135 159 252 243 187 162 161 188 185 157 212 244 258 241 211 186 186 186 189 193 194 196 195 198 204 210 213 211
191 191 192 186 183 180 177 178 177 175 173 171 169 167 168 169 172 179 183 183 181 179 180 180 181 181 181 191 200 189 184 192 192 187 174 173 178 174 168 165 175 183 178 174 172 166 164 162 169 235 297 282 267 277 289 306 297 201 180 225 214 173 242 297 200 166 156 200 196 158 210 251 277 253 201 187 189 193 194 196 201 202 201 202 206 212 216 218
189 191 191 184 178 176 175 176 176 173 170 168 166 165 164 164 168 172 176 173 171 175 174 173 175 172 167 181 189 180 180 194 191 183 169 172 178 168 164 162 166 176 174 168 169 162 158 161 175 247 288 282 257 247 271 311 296 275 156 200 210 174 219 298 235 202 165 160 207 194 188 245 272 204 179 184 191 197 199 198 202 206 206 205 208 213 216 218
188 187 186 182 175 173 173 174 175 172 168 165 163 161 159 160 162 162 168 169 165 168 167 165 166 163 155 170 182 184 184 187 186 177 163 168 174 164 166 170 162 162 164 163 167 162 157 163 182 244 269 263 232 195 230 263 254 271 103 175 220 181 176 206 272 241 163 149 206 206 192 245 270 191 175 183 189 194 199 199 203 208 211 209 209 213 216 218
187 183 180 179 174 171 173 173 172 170 167 163 158 155 154 155 156 157 162 159 148 152 158 159 158 154 189 188 183 188 187 181 181 175 165 170 176 168 169 169 160 155 155 157 164 163 158 172 197 251 253 233 225 194 197 219 203 191 165 186 241 174 175 197 229 213 163 157 204 179 229 259 272 230 193 193 190 196 204 203 205 209 213 213 210 212 217 221
186 183 178 175 173 171 172 171 169 168 165 159 153 148 145 144 149 158 161 153 144 144 164 176 171 161 231 187 183 187 188 181 175 175 171 172 175 168 161 158 156 149 147 152 163 167 162 176 205 227 227 223 221 201 202 217 195 173 174 182 189 179 210 214 235 228 165 159 210 189 209 239 243 241 217 204 198 205 214 212 210 212 216 215 212 215 219 224
183 181 175 170 170 171 171 169 167 167 165 158 150 143 139 141 140 155 163 164 165 157 206 184 176 146 107 165 169 172 177 177 174 174 175 176 171 158 148 147 150 145 143 148 159 179 178 186 210 212 215 225 227 208 205 225 236 220 184 187 191 190 221 232 262 265 160 157 217 205 211 241 237 240 235 215 204 209 218 217 215 214 215 215 214 217 222 228
180 177 172 168 169 170 171 170 168 168 168 164 156 150 152 155 148 171 167 173 180 163 9 179 171 126 145 156 163 164 162 166 174 173 174 176 169 155 148 145 144 142 161 160 158 185 194 208 215 214 219 229 233 218 214 235 249 253 219 205 205 198 215 250 252 244 163 165 229 215 218 258 249 240 242 217 198 212 215 211 215 216 215 216 217 219 225 230
177 173 169 168 169 170 170 170 169 169 169 168 164 162 166 162 160 181 165 159 180 164 106 175 169 159 159 157 165 167 160 153 168 173 172 171 169 166 161 155 150 149 169 171 164 184 206 221 209 214 222 233 250 233 230 243 243 242 214 187 212 206 187 298 325 239 101 167 255 253 212 251 255 247 244 212 201 216 217 214 218 217 214 215 216 220 224 226
172 169 168 168 170 169 170 170 169 168 168 170 170 169 169 165 164 174 155 122 170 179 173 171 164 159 160 155 162 165 161 153 160 173 174 170 171 175 167 160 163 158 168 184 179 179 202 211 202 214 214 219 249 250 245 247 243 242 180 156 216 200 167 234 279 200 129 138 198 81 210 259 267 267 263 229 220 221 222 223 226 224 220 218 217 220 223 222
169 167 168 168 168 169 170 169 167 169 171 172 172 171 168 165 153 160 146 104 148 193 178 167 153 160 162 156 162 164 161 161 164 170 175 175 170 170 167 163 165 165 175 185 183 184 205 187 192 213 219 205 233 253 256 240 240 246 196 163 197 189 185 198 163 143 41 348 82 77 360 294 255 245 258 241 228 223 224 224 226 228 226 225 224 223 223 222
168 166 168 166 167 169 167 166 167 170 172 171 172 172 169 163 144 151 140 98 115 110 166 166 155 166 165 160 164 164 157 163 171 170 175 179 171 162 167 171 170 173 179 180 177 184 213 190 183 207 228 200 220 244 242 213 222 257 225 190 187 182 169 133 124 110 64 313 269 116 308 290 269 237 240 241 230 224 223 218 222 228 225 224 225 225 225 225
167 165 166 165 165 166 164 165 169 169 169 172 173 171 168 156 142 145 126 75 149 121 162 172 170 166 167 165 161 157 153 167 180 174 174 179 176 166 164 175 177 176 173 177 188 179 200 182 169 196 209 196 222 240 229 186 182 245 247 200 165 147 135 137 141 127 128 230 264 138 175 262 307 269 244 237 231 233 225 217 223 227 224 222 225 227 227 225
166 165 165 165 165 165 164 165 168 168 168 172 172 170 164 153 151 148 105 61 175 158 163 181 176 166 170 169 160 155 158 163 168 177 177 175 176 172 172 182 169 176 168 162 198 200 140 160 170 184 188 191 210 231 233 174 156 235 246 138 132 134 144 158 153 145 178 185 336 35 146 231 287 265 256 230 219 245 241 230 233 228 223 223 224 225 225 225
167 166 165 166 167 167 166 165 166 167 168 163 162 166 163 161 166 163 109 135 163 145 159 179 170 165 169 167 164 153 144 156 155 183 181 174 174 171 176 193 172 175 177 162 185 222 117 162 182 171 169 194 199 223 230 172 165 240 221 128 138 147 151 157 146 135 110 114 290 291 146 187 269 269 291 262 200 249 243 229 234 228 223 222 221 221 220 219
168 166 166 167 166 168 168 166 165 164 162 154 154 164 168 169 174 159 129 176 139 130 156 159 157 165 164 164 170 144 137 159 155 174 178 177 181 176 173 196 181 151 174 172 169 195 176 177 181 167 171 194 186 214 221 180 201 217 150 88 77 78 102 123 131 122 76 95 233 246 185 182 269 277 295 345 210 238 236 232 233 228 225 222 220 219 216 215
167 166 167 167 165 167 167 164 164 160 156 156 158 163 166 169 170 134 189 190 135 150 156 154 163 166 158 156 175 152 138 150 124 150 171 180 180 179 167 183 175 117 81 92 134 175 305 161 167 156 162 162 148 157 207 199 190 135 94 63 43 25 49 62 65 99 90 261 245 243 206 174 270 277 240 213 220 211 213 238 241 232 230 226 225 222 218 218
167 166 167 168 167 168 165 160 162 161 157 159 159 157 157 161 136 134 177 153 117 144 145 150 160 158 159 160 168 157 124 96 135 147 165 178 173 177 161 168 159 108 81 61 76 355 9 119 162 110 131 129 114 85 26 45 127 106 91 98 75 360 17 26 0 68 161 246 262 265 210 161 225 261 244 244 259 225 202 218 228 224 221 219 217 215 214 214
166 167 167 168 168 170 167 162 164 165 164 163 157 153 150 143 137 180 159 138 146 180 169 167 165 161 166 159 149 149 117 109 163 160 159 161 170 186 176 175 166 144 152 158 131 21 26 308 254 90 148 155 130 110 32 16 51 92 113 127 123 9 35 26 261 222 217 241 274 293 277 199 228 255 262 269 277 255 218 218 223 202 185 186 191 197 205 210
165 165 165 168 171 171 169 165 166 170 172 167 159 155 149 145 178 185 153 162 180 173 164 163 160 156 155 149 147 152 126 132 178 168 156 150 164 195 213 213 182 160 172 174 147 130 171 307 299 101 277 205 168 154 158 254 122 134 147 149 153 145 113 208 239 263 250 254 275 278 290 255 263 272 254 251 257 249 234 227 219 193 177 178 187 197 209 217
165 164 163 166 170 172 172 169 170 173 172 165 160 159 152 163 174 149 155 189 165 141 146 144 142 146 152 157 164 155 114 106 170 161 156 156 167 197 216 218 195 146 117 154 162 167 174 260 227 165 164 185 184 176 159 155 166 187 174 147 157 164 153 193 215 206 223 257 285 282 258 195 203 259 251 256 265 244 216 201 191 182 180 183 189 201 212 219
164 164 163 161 164 171 174 172 174 175 168 160 157 166 171 176 183 152 160 176 137 135 140 139 139 144 157 156 160 166 144 134 170 160 165 177 181 189 192 200 197 158 140 169 192 166 160 203 261 325 32 159 172 208 127 125 169 223 154 128 177 187 148 146 185 181 174 173 270 243 232 208 206 269 276 291 320 180 163 166 165 167 174 178 187 201 208 214
161 163 162 158 160 167 173 175 176 173 165 159 154 185 186 187 177 155 159 154 144 141 133 137 144 147 157 152 166 184 174 140 166 168 182 189 188 191 190 192 191 176 163 168 170 144 155 206 316 359 12 117 144 149 65 122 190 187 137 179 214 167 119 120 199 155 108 154 248 208 239 283 298 287 291 312 159 184 161 162 162 165 171 177 187 196 199 204
161 162 160 159 163 167 173 176 174 168 167 168 176 182 181 166 152 134 131 132 136 140 136 144 164 161 163 163 172 182 164 135 167 174 176 180 191 195 192 197 195 188 180 164 166 190 152 136 318 341 163 268 137 110 60 47 113 124 169 213 200 129 102 114 171 13 67 202 265 207 213 269 273 265 314 357 210 231 224 198 183 177 178 183 187 189 193 195
159 159 158 163 168 169 173 176 172 167 171 188 195 181 130 138 167 135 133 135 139 147 149 153 167 172 171 164 167 175 162 156 176 175 166 180 216 190 179 194 199 191 195 181 168 204 147 121 305 297 181 267 358 109 140 27 82 140 187 206 126 156 213 149 157 187 179 223 268 275 238 243 214 223 287 267 224 229 228 217 208 198 192 188 185 185 187 187
155 154 159 171 172 169 172 175 173 170 178 200 191 194 148 154 190 145 143 142 144 153 158 160 160 163 169 161 157 167 169 168 170 168 171 186 224 192 176 184 192 189 195 187 171 202 163 140 244 275 258 243 14 141 185 186 84 92 26 3 58 158 185 186 170 163 166 204 240 284 295 255 232 217 213 221 222 217 212 211 210 207 199 190 187 185 184 186
154 152 165 177 175 169 169 170 170 173 196 196 179 213 171 135 2 151 149 148 147 157 163 165 161 155 155 156 154 161 165 158 162 175 189 174 188 209 186 178 171 179 184 176 167 188 159 136 173 282 324 161 183 223 187 171 169 145 80 172 236 223 147 201 223 142 129 167 205 224 265 266 251 212 200 222 231 216 206 205 209 210 201 193 191 189 185 186
154 145 167 178 176 166 162 162 169 186 199 172 164 221 184 137 113 148 151 150 145 138 153 156 161 155 148 154 160 162 154 148 166 179 184 177 182 215 196 182 166 160 166 171 187 184 143 129 143 136 188 197 236 265 197 180 181 171 175 185 190 188 139 167 241 236 132 172 183 170 236 271 256 214 213 238 252 235 208 201 204 208 203 197 193 192 190 188
154 138 170 180 178 164 160 160 184 190 178 169 171 165 150 138 134 139 146 146 139 105 135 146 155 152 152 161 161 160 156 155 177 181 180 191 186 188 195 184 171 164 166 168 182 164 117 104 117 130 201 215 258 279 252 222 160 143 192 195 170 166 144 161 211 232 230 225 153 134 220 274 263 241 247 264 289 294 216 207 210 207 202 198 195 193 193 192
151 117 158 179 178 165 162 165 173 177 221 205 167 120 134 132 132 141 147 149 146 131 139 146 159 157 161 163 153 160 165 158 183 185 166 174 185 192 190 179 170 165 164 155 160 156 123 101 104 85 323 307 305 306 306 292 115 140 226 195 160 183 177 170 184 171 183 211 159 160 243 268 276 276 278 282 295 310 250 212 211 205 198 198 198 196 194 194
127 116 144 173 176 170 171 185 171 178 211 179 128 122 154 130 134 151 156 157 154 145 141 148 165 158 153 151 152 167 173 163 189 190 155 153 184 202 175 176 171 164 172 181 177 172 164 135 118 116 72 356 333 313 286 246 190 202 240 193 176 188 153 146 155 123 228 223 167 172 233 250 273 301 305 300 306 292 261 203 195 196 192 196 200 198 196 194
121 118 139 161 174 180 191 231 176 173 179 158 142 161 150 74 137 154 145 145 141 133 135 149 158 137 120 138 144 165 176 163 163 180 161 145 172 9 159 180 178 173 187 187 172 164 168 166 140 140 164 186 201 217 203 181 183 247 237 174 182 178 159 165 175 177 240 238 158 172 229 253 280 307 302 294 305 277 246 209 195 196 191 195 199 199 197 195
132 129 132 152 178 196 222 267 189 169 177 166 151 167 150 110 148 149 136 135 103 115 111 123 144 126 126 147 143 168 186 162 98 161 161 143 166 329 155 176 180 176 181 176 165 154 137 180 173 176 194 197 189 178 149 136 149 206 213 195 191 189 178 169 156 192 215 204 185 219 226 244 264 271 269 268 252 238 242 217 202 199 196 199 201 202 201 199
145 160 155 157 180 199 226 244 212 184 183 174 163 171 156 137 139 144 134 144 156 134 87 26 153 150 158 159 150 169 181 145 101 151 149 138 158 360 91 136 153 155 155 168 166 150 106 205 196 194 209 205 169 163 160 154 171 198 203 201 201 193 180 176 196 212 197 176 235 242 223 231 248 240 228 247 242 230 236 220 209 204 202 204 204 204 204 202
137 163 173 172 168 188 205 208 202 187 179 176 165 155 151 147 160 171 146 88 149 152 105 62 183 175 163 157 149 157 164 143 139 160 140 124 127 65 46 50 63 83 101 162 169 148 129 196 198 195 214 215 172 176 175 170 184 197 197 201 202 192 183 190 212 219 200 196 234 237 223 228 239 228 216 228 225 222 227 223 215 209 206 204 202 202 202 203
80 129 171 175 177 188 163 155 163 172 173 171 159 160 164 165 167 166 116 105 156 191 147 151 189 182 158 154 143 146 167 168 168 174 148 137 140 113 96 81 38 19 60 133 170 145 151 194 185 173 202 227 195 183 183 186 196 200 201 205 201 193 193 198 211 219 212 214 229 234 237 242 237 217 224 233 231 232 234 226 216 211 208 204 200 202 203 204
101 61 160 170 154 136 141 127 130 162 175 173 173 182 174 171 169 161 139 156 169 193 176 164 176 170 155 156 150 165 187 174 159 169 152 134 151 158 151 168 172 90 74 120 171 108 161 208 167 143 183 252 310 109 163 189 203 209 215 217 204 197 203 208 215 219 215 224 237 244 260 265 240 210 232 250 246 229 215 211 214 213 209 203 200 203 206 208
124 56 122 152 97 138 153 152 157 166 179 187 190 189 180 183 177 154 114 184 171 176 175 161 158 148 143 162 168 179 181 161 154 167 163 160 173 178 174 166 152 135 119 154 157 121 138 197 124 118 165 236 340 64 134 126 124 217 232 225 205 197 205 212 215 214 206 218 236 244 254 257 236 200 227 244 224 196 201 210 212 210 206 205 206 208 210 211
135 81 103 131 105 152 161 161 169 176 188 193 190 181 174 180 169 144 123 319 166 163 159 150 145 138 151 179 189 185 173 168 171 170 168 171 174 168 159 158 156 155 157 154 147 142 142 146 146 148 170 224 326 67 129 91 81 245 240 216 204 205 208 210 220 222 212 208 218 227 234 240 226 193 216 226 193 197 212 211 210 211 209 210 215 219 219 216